Torna al catalogo

THOR ABLESTAR DEB

AttivoLEO
NORAD 148·DEBRIS·🇺🇸 United States

Lanciato Jun 29, 1961 da Cape Canaveral Space Force Station

Loading…

Prossimi Passaggi (prossime 24 ore)

TLE

AggiornatoSource: Space-Track

Epoca: Sep 13, 2026, 23:13 UTC

1 00148U 61015AJ  26256.96744413  .00000544  00000-0  31617-3 0  9999
2 00148  65.7688 240.5219 0152069 276.0614  82.3157 14.10965329771503

Traccia THOR ABLESTAR DEB in tempo reale con AllMySat

Download on the App Store